Погода в Полтаве

Погода в Полтаве : погода сейчас, прогноз погоды и архив. Всё, что Вы хотите узнать о погоде в Полтаве!

Поиск расширенной информации на нашем сайте:

Другие новости

Новости СМИ2

Главная страница сайта

Новости сайта

03.07.2017

Напоминаем, что на нашем специализированном сайте Метеоцентр.Азия вы можете получить высокодетализированные автоматические прогнозы погоды по пунктам России, СНГ и мира в авиационном формате (включающие направление и скорость ветра, видимость, явления погоды, количество и форму облачности, нижнюю и верхнюю границу облачности).


Погода в Полтаве - сегодня

Время (UTC), дата Ветер
(°,м/с) 
Видим.   Явления Облачность Т
(°С)
Тd
(°С)
f(%) Тe
(°С)
Pmin
(гПа)
dP
(гПа)
Po
(мм)
O2
(г/м3)
Тmin Tmax R s Состояние
почвы
09 17.06.18 110 (В) 10 км    4/1 1000 м средняя 
[Sc|Ac trans]
+25.5 +10.5 39 +27  1013.7  0.4  747  273           
12 17.06.18 090 (В) 10 км    3/0 верхняя 
[Ci fib]
+27.8 +10 33 +29  1013.1  -0.4  746  271           
15 17.06.18 110 (В) 10 км    8/0 средняя, верхняя 
[Ac trans|Ci fib]
+27.7 +9.1 31 +28  1012.5  -0.6  746  271           
18 17.06.18 070 (В) 10 км    4/0 верхняя 
[Cc]
+23.1 +10.7 46 +25  1013.6  0.8  746  275    +28.7       
21 17.06.18 070 (В) 10 км    ясно 
+19.9 +10.5 55 +23  1014.3  0.5  747  279           
00 18.06.18 080 (В) 10 км    ясно 
+17.2 +7.5 53 +18  1014.5  747  282           
03 18.06.18 080 (В) 10 км    3/0 верхняя 
[Ci fib]
+16.8 +7.7 55 +18  1014.6  0.1  747  282           
06 18.06.18 070 (В) 10 км    1/0 верхняя 
[Ci fib]
+22 +9.4 45 +22  1014.2  -0.1  747  277  +16.6        мокрая 
09 18.06.18 090 (В) 10 км    1/0 верхняя 
[Ci fib]
+26.3 +3.7 23 +26  1014  747  274         
12 18.06.18 060 (СВ) 10 км    ясно 
+27.2 +6.3 26 +27  1013.8  -0.1  747  273           
15 18.06.18 070 (В) 10 км    1/0 верхняя 
[Ci fib]
+27.2 +6 26 +27  1013.2  -0.6  746  273           
18 18.06.18 020 (С) 10 км    3/0 верхняя 
[Ci fib]
+23.2 +9.6 42 +24  1013.8  0.4  747  276    +27.9       
21 18.06.18 020 (С) 10 км    ясно 
+19.8 +9.2 50 +21  1014.9  0.8  747  279           
00 19.06.18 050 (СВ) 10 км    1/0 верхняя 
[Ci fib]
+17.8 +9.4 58 +19  1015.4  0.4  747  281           
03 19.06.18 050 (СВ) 10 км    3/0 верхняя 
[Ci fib]
+17.4 +9.2 59 +19  1016.1  0.7  748  282           
06 19.06.18 040 (СВ) 10 км    1/0 верхняя 
[Ci fib]
+23.8 +8.2 37 +24  1016.3  0.6  748  276  +17.1         
09 19.06.18 020 (С) 10 км    4/0 средняя, верхняя 
[Ac trans|Ci fib]
+27.2 +9.3 32 +28  1015.9  -0.2  748  273           
12 19.06.18 300 (СЗ) 10 км    4/1 1000 м средняя, верхняя 
[Cu hum|Ac trans|Ci fib]
+28.5 +10.3 32 +30  1015.3  -0.5  748  271           
15 19.06.18 320 (СЗ) 10 км    1/1 1000 м 
[Cu hum]
+28 +9.5 31 +29  1014.6  -0.7  747  272           
18 19.06.18 320 (СЗ) 10 км    4/0 средняя, верхняя 
[Ac As|Ci fib]
+23.6 +13.3 52 +30  1015.3  0.4  748  275    +29.4       
21 19.06.18 300 (СЗ) 10 км    ясно 
+20.3 +13.5 65 +27  1015.8  0.3  748  278           
00 20.06.18 290 (З) 10 км    3/0 средняя 
[Ac trans]
+19.7 +14.2 71 +28  1015.8  748  278           
03 20.06.18 270 (З) 10 км    8/0 средняя, верхняя 
[Ac trans|Ci fib]
+22.2 +14.2 60 +30  1015.8  0.1  748  276           
06 20.06.18 300 (СЗ) 10 км    8/6 1000 м средняя 
[Sc|Ac und]
+24.1 +12.7 49 +29  1015.9  0.2  748  275  +19.5         
09 20.06.18 300 (СЗ) 10 км    6/6 1000 м 
[Cu med, cong]
+28.1 +16.8 50 +40  1015.6  748  270           
Время (UTC), дата Ветер
(°,м/с) 
Видим.   Явления Облачность Т
(°С)
Тd
(°С)
f(%) Тe
(°С)
Pmin
(гПа)
dP
(гПа)
Po
(мм)
O2
(г/м3)
Тmin Tmax R s Состояние
почвы

Для получения пояснительной информации подведите курсор к названию столбца.

ПОГОДА в Полтаве - архив

Всё, что Вы хотите узнать о погоде в Полтаве - удобно и подробно!

Выберите нужную дату (начиная с 1 января 2015* года) и нажмите кнопку "Найти".
Будут отображены архивные сводки погоды по пункту Полтава, начиная с указанной даты.


Отображать данные в формате CSV (для использования в таблицах Excel)


Внимание! Наш архив погоды предназначен исключительно для личного некоммерческого использования в познавательных целях. Если Вам необходимы официальные справки о состоянии погоды (для производственных, юридических, коммерческих и т.п. целей), обращайтесь в органы Росгидромета.

*Примечание: данная дата относится к архиву по метеостанциям СССР (Россия, СНГ, Балтия).
Архив по метеостанциям Зарубежной Европы и Азии (кроме Китая) хранится 10 дней, по другим регионам земного шара (Китай, Африка, Америка, Австралия, Океания) - 1 день.

Полтава - район местоположения метеостанции


Название, широта, долгота, высота метеостанции:
Полтава 49.6°ш. 34.6°д. 160 м над ур. моря [Украина]

Дополнительная информация

В oтличие oт бoльшинства пoгoдных сайтoв мы публикуем пoдрoбную метеoинфoрмацию в детальнoм прoфессиoнальнoм фoрмате.

Характеристики температуры и влажнoсти вoздуха измеряются на высoте 2 м в тени вдали oт зданий и деревьев.
Скoрoсть ветра измеряется на высoте 10 м (на урoвне рoста челoвека скoрoсть ветра ниже в 1.5-2 раза). Если метеoстанция нахoдится в гoрoде или в лесу, тo скoрoсть ветра занижена на 2-4 м/с пo сравнению с oткрытым местoм. Скoрoсть ветра над акватoриями крупных рек и oзёр, а также на вершинах хoлмoв на 2-5 м/с выше, чем в oбычных услoвиях.
Атмoсфернoе давление в разных тoчках местнoсти мoжет значительнo oтличаться oт давления на метеoстанции, в зависимoсти oт услoвий рельефа (при пoдъёме на 10 м давление пoнижается примернo на 1 мм рт.ст.).